ODIN

Last updated on Sun Apr 12 2026 00:03:41 GMT+0000 (Coordinated Universal Time)

1 26702U 01007A 26101.49886850 .00042987 00000+0 49171-3 0 9997 2 26702 97.4005 138.9593 0003839 71.7167 288.4508 15.62035020378955
UTC large
Height (km)
Speed (km/s)
/
Latitude / Longitude
Inclination (degrees)
Orbital Period (minutes)
Azimuth
Elevation
Range (km)
Doppler Factor

Next 0 passes for location: London (51.5072 / 0.1276)

Sorry there are no passes over London.
ODIN